Temp
-11 -10 -10 -10 -11 -11 -11 -11 -12 -11 -12 -12 -11 -10 -10 -10 -10 -10 -10 -10 -10 -10 -10 -10 -10 -10 -10 -10 -10 -10 -10 -10 -11 -11 -11 -11 -11 -11 -11 -10 -11 -11 -11 -10 -11
-11 -10 -10 -10 -10 -11 -11 -11 -12 -12 -11 -12 -12 -11 -10 -10 -10 -10 -10 -10 -10 -10 -11 -11 -11 -11 -10 -10 -10 -10 -10 -10 -11 -11 -11 -11 -10 -10 -10 -12 -11 -12 -10 -11 -11
-10 -10 -10 -10 -10 -10 -11 -12 -12 -12 -12 -12 -12 -12 -11 -11 -11 -11 -10 -11 -11 -11 -11 -11 -11 -11 -11 -10 -10 -11 -10 -11 -11 -11 -11 -11 -11 -11 -12 -12 -12 -11 -11 -11 -11
-10 -11 -10 -10 -10 -10 -10 -12 -12 -12 -12 -12 -12 -12 -11 -12 -11 -10 -11 -11 -12 -12 -12 -12 -11 -11 -11 -11 -11 -11 -11 -11 -11 -11 -11 -11 -11 -11 -12 -12 -12 -11 -11 -12 -12
-11 -11 -11 -10 -10 -10 -10 -10 -11 -12 -12 -13 -12 -12 -12 -11 -10 -12 -11 -11 -11 -12 -12 -12 -12 -12 -12 -11 -11 -12 -11 -12 -11 -11 -10 -10 -10 -12 -11 -11 -12 -11 -12 -12 -12
-10 -11 -11 -11 -10 -10 -10 -10 -10 -11 -12 -12 -12 -12 -12 -10 -12 -12 -12 -11 -11 -11 -12 -12 -11 -12 -12 -11 -12 -11 -12 -12 -11 -10 -11 -11 -11 -11 -11 -11 -11 -11 -12 -12 -11
-10 -10 -10 -10 -10 -10 -10 -10 -10 -10 -10 -11 -11 -11 -10 -9 -11 -12 -12 -11 -11 -11 -12 -12 -11 -11 -11 -11 -11 -11 -11 -11 -11 -11 -10 -12 -10 -10 -11 -12 -12 -11 -12 -12 -11
-10 -10 -10 -10 -10 -10 -10 -11 -11 -11 -11 -11 -11 -11 -9 -10 -12 -11 -11 -10 -10 -10 -10 -11 -10 -11 -11 -11 -10 -11 -11 -11 -10 -11 -11 -12 -10 -11 -11 -12 -12 -12 -12 -12 -11
-10 -10 -10 -10 -10 -11 -11 -10 -10 -11 -11 -11 -11 -10 -8 -10 -11 -12 -11 -10 -10 -10 -10 -10 -10 -10 -10 -10 -9 -10 -9 -10 -10 -11 -11 -12 -11 -12 -11 -12 -12 -12 -12 -12 -12
-10 -10 -10 -10 -10 -10 -11 -11 -11 -10 -10 -10 -10 -9 -9 -10 -10 -11 -10 -10 -10 -10 -10 -10 -10 -10 -9 -9 -8 -9 -10 -10 -10 -11 -11 -12 -12 -12 -12 -12 -11 -12 -12 -12 -11
-10 -10 -10 -10 -10 -10 -11 -11 -11 -11 -10 -10 -10 -9 -10 -9 -10 -10 -10 -10 -10 -10 -9 -10 -10 -8 -9 -9 -10 -11 -11 -12 -12 -11 -11 -11 -11 -12 -12 -12 -11 -12 -13 -13 -12
-10 -10 -10 -10 -10 -11 -11 -10 -11 -11 -10 -10 -10 -9 -10 -10 -9 -10 -10 -9 -9 -9 -10 -10 -8 -9 -9 -10 -10 -11 -11 -11 -12 -12 -12 -12 -12 -12 -12 -11 -11 -12 -12 -12 -12
-10 -10 -10 -10 -10 -11 -11 -12 -12 -11 -10 -9 -9 -9 -9 -10 -9 -9 -9 -9 -9 -9 -9 -9 -9 -10 -10 -10 -10 -10 -10 -11 -12 -12 -12 -12 -12 -12 -12 -12 -13 -13 -12 -11 -11
-11 -10 -10 -10 -10 -11 -11 -12 -12 -11 -10 -9 -9 -8 -9 -9 -9 -9 -9 -9 -9 -8 -9 -9 -10 -10 -10 -10 -11 -10 -11 -12 -12 -12 -12 -12 -11 -12 -12 -12 -12 -13 -12 -11 -11
-15 -14 -13 -12 -11 -11 -11 -12 -12 -12 -12 -9 -9 -9 -10 -9 -9 -9 -10 -9 -9 -9 -9 -8 -9 -10 -10 -10 -10 -10 -13 -12 -12 -13 -13 -11 -11 -10 -12 -12 -12 -13 -12 -11 -11
-20 -19 -17 -16 -14 -13 -12 -12 -13 -14 -11 -9 -11 -9 -9 -9 -9 -10 -10 -10 -10 -10 -9 -9 -10 -10 -10 -12 -12 -12 -13 -12 -13 -13 -11 -11 -11 -10 -12 -12 -12 -12 -12 -12 -12
-21 -20 -20 -20 -19 -18 -15 -15 -15 -13 -10 -10 -12 -11 -10 -9 -10 -10 -10 -10 -9 -9 -8 -9 -9 -9 -10 -13 -13 -12 -13 -12 -13 -12 -9 -11 -11 -11 -12 -12 -12 -12 -13 -12 -12
-23 -23 -23 -23 -23 -21 -20 -20 -15 -10 -10 -11 -13 -14 -11 -11 -10 -11 -10 -10 -10 -10 -10 -9 -9 -9 -9 -9 -11 -12 -12 -11 -12 -11 -11 -11 -11 -11 -11 -11 -12 -11 -12 -11 -12
-24 -23 -23 -24 -24 -24 -23 -22 -15 -12 -12 -13 -15 -15 -15 -13 -12 -11 -11 -10 -10 -10 -10 -10 -9 -10 -10 -11 -12 -12 -11 -10 -11 -12 -12 -11 -11 -12 -12 -11 -11 -11 -12 -12 -12
-24 -23 -23 -22 -23 -24 -24 -23 -17 -14 -15 -16 -15 -15 -14 -15 -15 -14 -11 -10 -10 -10 -10 -10 -10 -10 -10 -12 -12 -11 -11 -11 -11 -11 -11 -12 -11 -11 -11 -12 -12 -12 -12 -12 -12
-24 -24 -23 -22 -23 -24 -23 -21 -21 -19 -18 -18 -16 -15 -14 -14 -15 -15 -12 -11 -10 -10 -10 -11 -12 -11 -12 -12 -10 -10 -11 -12 -11 -12 -12 -12 -11 -11 -11 -12 -11 -11 -11 -12 -12
-25 -25 -25 -24 -24 -24 -23 -24 -24 -21 -20 -18 -18 -15 -14 -15 -14 -14 -14 -12 -11 -11 -10 -10 -11 -12 -12 -12 -11 -10 -10 -12 -10 -11 -11 -12 -11 -12 -12 -11 -11 -12 -11 -11 -12
-26 -25 -25 -25 -25 -25 -25 -24 -23 -23 -22 -19 -19 -16 -15 -15 -14 -14 -14 -14 -12 -12 -10 -10 -11 -11 -12 -12 -12 -12 -10 -12 -12 -12 -12 -11 -11 -12 -12 -12 -11 -11 -11 -11 -12
-26 -26 -25 -25 -25 -25 -25 -25 -24 -23 -22 -21 -19 -18 -16 -15 -14 -14 -14 -14 -14 -14 -11 -11 -11 -11 -10 -11 -11 -10 -10 -10 -10 -11 -11 -10 -12 -12 -12 -11 -12 -11 -10 -12 -12
-26 -26 -26 -26 -26 -26 -26 -25 -25 -24 -24 -23 -20 -19 -17 -16 -15 -14 -15 -14 -14 -14 -14 -13 -11 -11 -11 -11 -12 -12 -10 -10 -10 -10 -10 -10 -11 -12 -12 -12 -12 -13 -12 -12 -12
-26 -26 -26 -27 -27 -26 -26 -26 -25 -25 -25 -23 -21 -20 -18 -16 -16 -14 -14 -14 -13 -14 -14 -14 -12 -12 -11 -11 -12 -12 -11 -10 -10 -11 -10 -10 -10 -11 -12 -11 -13 -13 -12 -11 -12
-26 -27 -27 -27 -26 -26 -26 -26 -25 -25 -25 -24 -22 -20 -18 -16 -16 -16 -14 -14 -13 -14 -14 -15 -12 -12 -12 -11 -12 -12 -12 -11 -10 -10 -11 -9 -10 -11 -12 -12 -13 -13 -13 -12 -12
Height
5811 5812 5814 5815 5817 5820 5823 5828 5829 5833 5835 5839 5842 5844 5846 5846 5848 5852 5858 5857 5856 5856 5857 5858 5859 5860 5859 5862 5862 5861 5859 5860 5861 5862 5862 5860 5856 5854 5850 5844 5842 5834 5834 5834 5831
5805 5805 5805 5807 5808 5811 5814 5818 5820 5823 5826 5829 5833 5836 5839 5839 5840 5844 5849 5848 5850 5851 5852 5852 5853 5852 5854 5856 5856 5855 5853 5855 5855 5856 5854 5853 5851 5850 5847 5842 5836 5830 5824 5827 5828
5798 5798 5798 5799 5799 5798 5800 5805 5808 5813 5816 5820 5823 5826 5830 5832 5834 5838 5840 5842 5845 5845 5844 5845 5845 5845 5848 5848 5851 5849 5845 5847 5848 5848 5847 5847 5846 5844 5840 5837 5835 5830 5826 5818 5821
5791 5790 5791 5792 5791 5790 5791 5793 5798 5801 5805 5810 5815 5817 5819 5821 5823 5827 5834 5836 5836 5837 5837 5838 5838 5838 5839 5843 5845 5839 5840 5841 5841 5842 5842 5841 5840 5836 5834 5832 5829 5824 5825 5819 5817
5783 5783 5782 5783 5783 5784 5784 5784 5786 5789 5794 5798 5803 5806 5808 5807 5814 5817 5822 5826 5828 5829 5830 5831 5828 5831 5830 5835 5835 5834 5836 5837 5837 5836 5837 5835 5832 5832 5829 5827 5824 5819 5819 5816 5812
5774 5773 5773 5775 5775 5775 5776 5777 5778 5780 5783 5788 5790 5793 5794 5790 5814 5812 5809 5812 5817 5819 5823 5821 5820 5822 5823 5826 5829 5831 5830 5831 5830 5830 5830 5828 5826 5825 5825 5822 5818 5816 5815 5812 5808
5764 5764 5764 5765 5766 5767 5767 5768 5769 5772 5775 5777 5777 5779 5779 5788 5800 5798 5799 5797 5808 5810 5812 5812 5814 5814 5819 5819 5822 5823 5821 5823 5823 5825 5824 5823 5822 5822 5822 5816 5814 5810 5808 5807 5804
5757 5755 5754 5754 5754 5756 5758 5759 5760 5761 5764 5766 5768 5768 5769 5783 5783 5787 5790 5795 5799 5801 5804 5806 5807 5808 5810 5812 5812 5814 5815 5814 5820 5821 5820 5819 5815 5818 5817 5813 5810 5807 5806 5802 5799
5744 5744 5744 5744 5744 5744 5745 5748 5749 5752 5755 5756 5759 5759 5763 5776 5776 5784 5782 5788 5790 5793 5796 5799 5800 5802 5804 5804 5806 5807 5808 5811 5815 5816 5816 5817 5812 5811 5812 5811 5807 5803 5801 5799 5793
5729 5729 5730 5731 5732 5733 5734 5734 5735 5739 5741 5745 5749 5751 5760 5767 5770 5774 5776 5780 5782 5785 5788 5791 5792 5793 5796 5796 5803 5806 5805 5809 5811 5813 5816 5812 5809 5809 5807 5806 5803 5803 5797 5793 5790
5712 5712 5713 5714 5716 5718 5721 5723 5724 5724 5725 5733 5739 5742 5747 5753 5762 5764 5765 5768 5772 5773 5778 5782 5783 5785 5792 5797 5800 5801 5802 5806 5810 5815 5807 5809 5806 5807 5805 5801 5800 5797 5796 5790 5784
5693 5693 5694 5696 5698 5701 5704 5706 5706 5710 5714 5722 5727 5731 5741 5740 5749 5754 5756 5759 5762 5765 5771 5774 5773 5785 5789 5790 5793 5795 5797 5800 5806 5809 5809 5806 5805 5803 5802 5797 5793 5791 5789 5786 5779
5670 5670 5672 5674 5678 5683 5687 5690 5691 5694 5697 5710 5719 5723 5734 5730 5738 5742 5744 5749 5752 5756 5761 5767 5778 5779 5780 5783 5786 5788 5791 5794 5800 5803 5802 5800 5798 5797 5794 5794 5792 5789 5784 5781 5776
5640 5643 5646 5649 5656 5658 5665 5671 5673 5676 5680 5696 5709 5714 5720 5726 5728 5737 5738 5741 5743 5749 5755 5760 5769 5769 5772 5775 5780 5782 5787 5791 5796 5796 5795 5796 5791 5793 5791 5789 5788 5783 5780 5778 5773
5609 5612 5616 5621 5626 5631 5642 5650 5655 5664 5668 5689 5697 5705 5712 5714 5726 5729 5733 5733 5739 5744 5747 5755 5758 5761 5765 5771 5776 5778 5785 5791 5791 5789 5789 5788 5787 5788 5787 5786 5788 5779 5775 5772 5769
5583 5584 5588 5592 5598 5602 5613 5624 5631 5641 5655 5673 5681 5686 5695 5706 5713 5717 5722 5726 5733 5735 5741 5747 5751 5755 5762 5768 5770 5777 5782 5785 5785 5785 5782 5784 5784 5784 5784 5786 5781 5776 5772 5769 5766
5564 5563 5565 5569 5576 5577 5585 5593 5604 5618 5661 5665 5670 5670 5684 5691 5701 5705 5710 5715 5721 5726 5733 5738 5744 5749 5754 5760 5768 5770 5776 5777 5778 5777 5779 5782 5779 5778 5782 5781 5777 5774 5769 5765 5765
5550 5548 5547 5550 5553 5557 5563 5567 5580 5625 5643 5657 5668 5662 5662 5678 5686 5695 5696 5707 5713 5721 5728 5731 5735 5742 5747 5753 5760 5764 5767 5769 5772 5774 5776 5780 5776 5780 5775 5776 5773 5770 5766 5764 5762
5539 5537 5538 5539 5540 5542 5546 5546 5569 5608 5624 5640 5648 5646 5656 5659 5672 5678 5687 5696 5706 5714 5719 5724 5731 5738 5743 5749 5755 5759 5759 5768 5768 5772 5773 5776 5775 5773 5772 5770 5767 5764 5763 5762 5760
5528 5526 5524 5524 5527 5530 5531 5536 5559 5584 5602 5601 5621 5629 5633 5651 5659 5660 5675 5683 5695 5704 5714 5721 5726 5732 5739 5745 5748 5751 5759 5760 5761 5764 5767 5770 5773 5777 5769 5768 5764 5762 5762 5759 5758
5518 5517 5515 5516 5517 5519 5522 5535 5548 5558 5575 5576 5591 5603 5615 5626 5639 5656 5660 5677 5685 5696 5704 5714 5720 5727 5734 5730 5738 5744 5748 5752 5758 5760 5763 5767 5770 5768 5766 5763 5762 5762 5760 5758 5756
5511 5512 5512 5510 5513 5513 5518 5526 5529 5535 5546 5555 5564 5579 5600 5610 5616 5628 5650 5662 5675 5686 5691 5704 5709 5715 5722 5728 5734 5739 5744 5748 5750 5756 5758 5764 5769 5761 5761 5762 5760 5759 5756 5756 5755
5507 5508 5508 5509 5509 5509 5512 5515 5517 5523 5533 5543 5549 5565 5578 5588 5607 5620 5636 5655 5665 5671 5679 5695 5696 5706 5715 5725 5726 5729 5735 5741 5746 5749 5752 5757 5762 5760 5758 5758 5758 5753 5753 5753 5753
5504 5504 5505 5504 5504 5504 5505 5507 5510 5514 5519 5525 5536 5548 5563 5581 5594 5612 5625 5642 5658 5663 5673 5681 5691 5694 5703 5713 5718 5722 5728 5734 5739 5741 5746 5751 5759 5758 5751 5755 5755 5751 5749 5752 5751
5501 5501 5500 5499 5497 5496 5497 5501 5503 5507 5512 5520 5525 5536 5551 5570 5582 5601 5606 5614 5629 5653 5665 5668 5677 5687 5698 5709 5714 5716 5721 5727 5730 5735 5739 5747 5750 5755 5751 5752 5752 5749 5746 5748 5750
5498 5498 5497 5495 5491 5492 5492 5497 5499 5502 5505 5510 5516 5529 5542 5558 5567 5575 5588 5602 5621 5636 5655 5659 5670 5680 5688 5699 5706 5708 5713 5719 5724 5729 5733 5739 5743 5749 5751 5747 5749 5746 5746 5746 5747
5496 5495 5494 5493 5490 5492 5492 5492 5495 5497 5503 5506 5515 5522 5527 5547 5551 5561 5571 5589 5604 5619 5627 5642 5656 5667 5675 5689 5697 5700 5705 5710 5719 5723 5727 5732 5739 5743 5747 5748 5751 5744 5745 5745 5746
Wind_Speed
38 40 43 46 56 61 61 64 63 62 52 48 48 48 48 47 49 48 43 39 38 38 40 40 39 31 32 32 24 26 30 29 30 19 21 18 18 25 28 35 37 40 37 31 30
33 38 38 42 51 59 65 68 65 65 60 55 48 50 51 46 47 47 44 39 32 34 33 38 36 37 37 36 29 32 37 32 28 20 29 30 31 29 29 26 30 37 48 40 34
29 27 28 32 40 49 56 59 62 59 54 55 56 55 50 50 47 43 40 37 36 39 42 46 45 44 33 34 32 37 39 35 30 27 33 31 29 28 24 33 34 37 41 47 32
29 25 25 26 30 37 47 54 64 68 62 60 59 58 58 58 58 53 46 41 44 46 46 49 53 53 52 47 43 45 40 37 32 32 31 27 26 27 30 31 34 40 35 39 42
32 31 25 31 29 28 35 43 49 58 67 60 64 67 66 69 66 57 57 54 52 53 53 53 59 59 59 50 36 41 39 35 36 36 29 26 25 28 31 30 31 41 39 36 29
36 36 34 36 37 35 33 33 36 45 53 64 64 67 69 65 58 62 62 61 63 62 58 57 48 44 47 43 42 44 37 34 39 29 23 25 28 33 23 32 36 33 32 25 26
42 42 44 41 40 41 40 40 38 31 33 39 49 52 54 46 53 61 69 67 50 37 36 29 30 35 37 39 42 38 37 37 34 27 24 25 31 29 23 31 31 34 31 27 28
42 42 42 43 45 44 44 45 45 43 43 46 44 44 39 31 38 35 30 26 26 31 30 31 29 33 37 36 33 33 35 34 21 23 23 30 35 34 24 25 33 35 31 33 31
49 48 48 47 44 46 47 46 47 48 49 48 46 46 34 30 30 31 37 31 33 33 32 29 32 31 31 32 28 28 29 27 20 18 22 27 38 35 27 22 29 32 32 35 36
52 52 52 52 51 50 48 47 50 49 51 50 48 45 40 35 36 36 35 34 35 35 34 30 29 30 28 31 20 20 21 19 16 11 20 32 30 31 34 25 31 32 38 39 30
58 57 56 56 57 55 54 53 51 51 51 51 50 48 46 43 39 39 41 42 38 39 34 33 34 33 25 17 15 18 15 19 14 16 21 18 23 32 35 31 28 27 37 33 35
66 65 63 62 60 60 60 58 59 58 53 46 44 44 37 44 37 40 44 44 41 41 37 37 38 28 25 25 26 25 22 22 22 23 28 28 28 35 31 20 20 23 23 26 33
74 74 72 69 67 64 63 64 63 63 62 53 46 42 32 38 29 32 37 37 37 38 42 39 27 28 28 29 30 30 26 23 21 23 24 24 31 28 18 21 25 25 29 22 25
79 80 80 79 75 72 69 68 69 70 68 60 54 48 43 39 36 29 35 36 37 33 36 35 31 32 30 33 29 29 20 16 23 25 27 19 28 24 22 18 23 31 30 20 21
76 79 81 82 82 80 76 73 72 70 70 63 57 54 51 48 37 34 34 36 33 30 34 24 30 32 30 30 27 25 17 21 28 26 27 29 30 16 11 13 20 30 39 25 18
58 61 66 72 80 83 83 78 77 74 70 64 60 61 58 53 47 42 39 40 33 35 33 30 27 29 27 24 25 23 22 28 28 25 30 22 19 11 5 16 23 30 33 22 21
53 55 57 57 58 66 77 78 73 80 65 63 58 68 60 55 51 49 49 46 44 42 37 35 33 28 28 30 27 25 32 31 28 27 26 12 15 15 16 26 34 24 16 23 18
34 32 35 39 43 51 56 59 79 76 69 60 47 41 57 63 56 49 55 49 47 42 36 37 37 34 28 27 30 33 32 29 28 22 8 16 22 17 27 26 21 18 17 20 16
37 37 33 32 33 37 48 56 75 75 69 64 37 39 42 51 59 55 53 54 50 47 43 39 35 28 30 30 32 34 31 23 26 20 24 13 12 16 27 25 30 22 17 15 17
35 31 30 29 32 35 44 52 60 67 60 60 64 46 43 32 37 50 55 56 52 49 44 39 32 31 23 30 34 32 26 29 26 25 25 19 16 18 26 26 23 24 24 15 15
30 16 18 22 28 34 35 32 35 46 57 60 67 65 53 44 36 43 54 51 50 47 48 42 34 31 31 42 35 33 37 35 27 21 17 12 7 19 31 23 30 32 25 14 15
17 10 13 14 18 32 30 23 33 47 57 62 66 81 64 53 48 54 44 54 52 47 49 47 47 38 39 35 35 29 31 34 29 24 24 20 16 26 23 27 31 28 17 15 13
9 7 11 11 21 20 21 30 34 39 46 70 62 79 75 62 52 53 47 38 50 49 51 45 53 47 35 33 43 38 35 33 33 31 23 21 18 24 28 31 22 29 17 10 10
10 8 10 18 26 26 22 24 24 34 47 75 62 71 80 70 62 54 50 42 35 39 52 45 49 53 49 42 42 40 38 35 34 36 32 26 14 22 32 24 27 22 11 10 10
8 8 9 14 24 27 31 26 22 20 27 60 60 63 68 81 75 59 55 56 52 44 42 42 51 49 44 40 39 41 40 36 37 35 33 22 24 22 25 21 19 24 22 13 9
7 9 13 14 16 7 16 29 28 20 22 59 61 59 62 79 75 73 65 58 54 50 48 49 52 47 45 41 38 39 41 36 34 35 36 28 26 21 21 21 14 28 26 17 10
9 10 8 10 13 11 12 17 29 26 23 29 61 65 68 79 70 77 73 62 63 60 52 48 53 53 52 44 43 40 40 40 36 34 35 32 27 25 19 22 22 29 25 24 10
Wind_Direction
258 254 249 243 244 246 249 247 250 251 239 241 245 247 246 250 253 252 253 258 264 266 268 270 276 276 281 286 278 284 296 302 308 299 279 284 278 277 288 292 295 297 296 298 305
256 247 248 251 244 241 244 249 250 245 248 238 241 245 245 243 247 245 246 246 252 260 269 275 279 281 279 285 278 288 292 301 300 288 275 273 282 289 292 289 300 300 301 307 309
252 249 249 252 253 251 247 244 241 235 239 244 243 245 240 243 239 241 236 243 253 262 268 271 276 280 281 273 288 285 291 299 295 283 283 287 293 299 290 285 282 287 293 302 312
243 244 248 252 254 252 245 244 243 240 240 239 242 239 239 239 241 241 242 253 256 257 264 272 275 274 276 279 280 284 288 295 299 295 288 290 297 304 294 292 289 287 295 297 310
255 246 250 254 252 252 249 244 241 241 242 237 240 245 241 241 248 247 248 252 250 257 258 269 273 269 266 278 282 281 283 284 276 292 285 295 305 290 296 296 284 294 303 312 313
264 256 260 253 250 244 248 245 247 245 242 243 245 244 250 252 253 256 258 255 251 258 267 264 266 265 265 267 273 278 275 271 280 280 294 291 290 295 305 300 295 308 300 313 323
267 265 268 263 259 251 246 243 241 247 248 245 249 254 250 251 250 252 252 262 266 254 263 267 259 258 264 269 269 266 265 270 272 285 291 296 287 303 300 282 292 306 318 311 312
258 262 263 262 263 260 254 250 246 246 244 246 248 252 259 245 244 251 249 236 239 257 258 253 252 251 254 261 257 255 263 268 282 281 302 293 295 300 307 278 288 298 308 313 313
265 261 258 257 258 259 256 252 250 249 248 246 247 250 258 233 242 249 245 242 248 252 253 247 249 252 248 253 256 255 261 270 284 294 314 267 285 294 309 287 292 293 312 310 301
266 263 260 259 256 253 255 255 252 248 249 249 249 250 258 247 236 240 248 249 250 248 247 246 249 253 248 251 283 280 279 278 302 310 272 260 275 302 302 301 287 295 304 305 309
268 264 261 257 254 254 252 251 252 251 249 249 250 250 253 247 239 238 242 244 241 244 244 244 247 250 263 277 252 258 254 254 273 280 280 284 298 288 292 293 292 276 274 291 301
267 263 261 259 255 252 251 251 251 251 251 248 246 248 246 255 243 240 242 244 244 248 244 240 247 256 259 247 244 249 254 242 242 247 253 255 270 268 285 305 306 298 292 291 292
264 262 260 257 254 252 250 250 250 250 250 245 244 246 238 249 240 228 236 239 243 244 240 246 256 250 247 246 250 256 257 246 250 257 257 260 272 284 322 301 290 286 299 299 306
263 259 256 255 253 250 246 245 245 246 248 245 241 240 242 241 245 231 236 236 237 239 238 242 241 239 236 243 248 253 250 257 254 251 257 252 267 268 282 303 313 295 307 312 303
267 260 255 252 250 247 245 243 244 244 246 243 243 243 241 241 248 236 239 237 239 238 233 237 234 235 234 236 241 243 228 241 256 268 270 268 269 286 298 329 287 275 291 309 314
274 268 262 256 251 248 243 241 240 238 239 242 244 241 240 238 237 236 229 232 230 233 232 229 229 228 232 232 241 228 231 235 243 251 261 275 295 291 330 273 264 275 293 307 320
280 272 265 260 255 251 246 245 239 234 236 237 242 247 241 239 236 234 232 230 227 226 229 222 226 223 217 219 228 220 218 232 247 251 267 320 311 318 272 261 263 295 276 299 314
289 287 269 262 256 250 247 244 238 232 232 235 234 247 247 241 236 232 236 230 229 229 233 231 223 226 219 221 216 223 230 232 241 258 303 306 266 269 290 302 313 307 282 299 309
286 285 279 266 257 247 241 240 236 228 226 226 204 205 256 254 243 237 234 234 233 232 228 231 228 226 225 225 211 225 235 247 231 222 246 254 286 289 302 309 307 327 323 299 301
294 289 273 262 251 250 239 242 236 227 221 211 203 200 204 231 235 238 229 232 229 229 227 231 232 219 222 214 223 220 239 235 234 239 234 238 251 272 272 281 284 299 309 313 306
306 292 267 263 248 247 255 259 239 223 202 198 197 200 196 194 208 226 231 227 228 227 224 221 222 221 213 216 225 221 213 235 240 239 242 261 287 246 270 267 289 301 295 312 314
304 278 287 284 261 250 253 248 235 221 200 194 193 195 194 192 196 199 226 224 225 221 222 218 219 205 219 224 236 236 227 225 242 234 229 216 235 246 249 265 280 305 285 293 305
308 265 266 258 274 271 250 241 235 229 206 196 197 199 195 189 192 195 196 218 217 223 218 210 210 214 209 214 229 229 222 217 228 239 239 235 218 264 277 279 300 303 302 301 310
313 307 272 261 252 248 241 241 238 229 212 203 197 193 197 191 189 191 190 188 220 208 216 216 213 219 221 211 224 236 226 229 233 239 243 238 206 247 254 275 297 306 303 294 305
310 307 291 289 262 255 241 232 220 240 222 208 199 194 191 196 195 190 192 194 192 203 223 225 209 218 222 209 225 236 239 231 236 247 244 249 228 230 271 285 292 304 317 324 307
308 305 310 296 286 249 250 235 221 215 220 209 208 196 191 187 193 192 188 190 186 183 217 224 216 215 219 215 211 225 245 232 232 238 249 244 242 222 236 273 295 284 287 314 311
315 287 324 315 327 261 271 253 222 227 215 219 212 204 193 187 192 194 188 186 184 185 199 211 215 206 215 211 198 221 224 238 230 231 241 250 250 229 210 230 236 256 274 273 290